www.pogodaiklimat.ru

Погода и климат >> Архив погоды >> Россия >> Чукотка >> Певек


АРХИВ ПОГОДЫ в Певеке

Время (UTC), дата Ветер
(напр.,м/с)
 
Видим.   Явления Облачность Т
(С)
Тd
(С)
f
(%)
Тe
(С)
Тes
(С)
Комфортность P
(гПа)
Po
(гПа)
Тmin
(С)
Tmax
(С)
R
(мм)
R24
(мм)
S
(см)
21 17.05 В 1
{3}
4000 м слаб. снег 10/3 300 м
[St As op]
-3.3 -4.4 92 -6 -5 по сезону 1014.7 1014.0 -3.8 2 1
00 18.05 СЗ 3
{5}
2000 м снег 10/0
[As op]
-3.1 -4.9 87 -8 -7 прохладно 1016.0 1015.3
03 18.05 СЗ 5
{7}
20 км {снег} 10/0
[Ac und]
-3.2 -5.5 84 -10 -9 холодно 1016.9 1016.2
06 18.05 СЗ 4
{7}
20 км {снег} 10/0
[Ac und]
-4.7 -6.1 90 -11 -10 очень
холодно
1017.9 1017.2
09 18.05 СЗ 6
{8}
20 км снежные кристаллы 10/0
[Ac As]
-5.1 -6.2 92 -13 -13 очень
холодно
1018.4 1017.7 -2.7 0.4
12 18.05 СЗ 3
{9}
20 км снежные кристаллы 10/0
[Ac As]
-6.7 -8.2 89 -12 -12 холодно 1019.4 1018.7
15 18.05 СЗ 3
{8}
20 км {снег} 10/0
[Ac und]
-7.9 -9.0 92 -14 -14 очень
холодно
1020.2 1019.5
18 18.05 З 3
{4}
20 км {снег} 8/0
[Ac trans]
-10.6 -12.5 86 -17 -16 очень
холодно
1021.2 1020.5
21 18.05 З 2
{5}
20 км снежные кристаллы 10/10 600 м
[Sc]
-8.5 -10.8 83 -13 -13 очень
холодно
1021.4 1020.7 -11.1 0.0 0
00 19.05 З 6
{7}
10 км слаб. ливневой снег 10/6 600 м
[Cb cap Ac und]
-7.4 -10.4 79 -16 -15 очень
холодно
1021.1 1020.4
03 19.05 СЗ 4
{8}
20 км {ливн. осадки} 4/1 600 м
[Cu hum Ac trans]
-9.1 -12.1 79 -16 -12 очень
холодно
1021.4 1020.7
06 19.05 СВ 2
{5}
10 км слаб. ливневой снег 8/5 600 м
[Cb cap Ci fib]
-8.9 -12.1 78 -13 -12 очень
холодно
1021.0 1020.3
09 19.05 СВ 3
{4}
20 км {ливн. осадки} 8/3 600 м
[Cu hum Ac trans]
-10.3 -12.9 81 -16 -16 очень
холодно
1020.2 1019.5 -7.3 0.0
12 19.05 СВ 3
{4}
20 км {ливн. осадки} 8/8 600 м
[Sc]
-10.4 -12.6 84 -16 -16 очень
холодно
1019.9 1019.2
15 19.05 СЗ 2
{5}
20 км 6/6 600 м
[Sc]
-10.1 -12.2 85 -15 -15 очень
холодно
1019.3 1018.6
18 19.05 ЮЗ 1
{4}
20 км 4/4 600 м
[Sc]
-9.2 -11.8 81 -12 -10 холодно 1018.3 1017.6
21 19.05 С 4
{6}
20 км 3/1 600 м
[Sc Ci sp]
-8.6 -10.7 85 -15 -12 очень
холодно
1017.2 1016.5 -10.8 0
00 20.05 СВ 5
{6}
50 км 3/0
[Ci fib]
-5.6 -8.7 79 -13 -8 холодно 1016.3 1015.6
03 20.05 СЗ 4
{11}
50 км 6/1 600 м
[Sc Ci sp]
+1.4 -5.6 60 -3 +1 по сезону 1015.4 1014.7
06 20.05 СЗ 2
{15}
50 км 8/0
[Ci sp]
+3.5 -4.5 56 +1 +4 тепло 1014.8 1014.1
09 20.05 ЮВ 20-29
{34}
50 км 6/1 600 м
[Sc Ci sp]
+2.3 -3.4 66 -7 -7 по сезону 1013.8 1013.1 +3.7
12 20.05 ЮВ 20-29
{34}
50 км 4/1 600 м
[Sc Ci sp]
+2.2 -3.5 66 -7 -7 по сезону 1014.5 1013.8
15 20.05 ЮВ 18-27
{30}
50 км 3/0
[Ci fib]
+2.0 -4.1 64 -7 -7 по сезону 1015.4 1014.7
18 20.05 ЮВ 14-22
{27}
50 км 3/0
[Cc]
+3.0 -5.2 55 -5 -5 по сезону 1016.5 1015.8
21 20.05 С 2
{22}
20 км 8/0
[Ac trans Ci sp]
+3.5 -3.6 60 +1 +5 тепло 1018.0 1017.3 +1.8 0
00 21.05 СВ 2
{7}
50 км 9/0
[Ac trans]
+4.0 -2.7 62 +2 +6 по сезону 1018.5 1017.8
03 21.05 С 3
{5}
20 км 9/0
[Ac trans Ci sp]
+3.8 -2.0 66 0 +4 по сезону 1019.4 1018.7
06 21.05 ЮЗ 1
{4}
20 км 10/0
[Ac trans Cs]
+1.0 -1.1 86 -1 +2 по сезону 1020.7 1020.0
09 21.05 СЗ 4
{6}
4000 м слаб. снег 10/3 300 м
[Frnb As op]
-1.3 -2.5 92 -7 -7 прохладно 1022.5 1021.8 +4.5 0.0
12 21.05 СЗ 5
{7}
2000 м снег 10/3 300 м
[Frnb As op]
-3.2 -4.0 94 -10 -10 холодно 1023.7 1023.0
15 21.05 З 6
{7}
2000 м снег 10/3 300 м
[Frnb As op]
-4.6 -5.7 92 -12 -12 очень
холодно
1024.8 1024.1
18 21.05 З 4
{7}
2000 м снег {метель} 10/0
[As op]
-5.9 -7.4 89 -12 -12 холодно 1025.8 1025.1
21 21.05 З 3
{5}
4000 м слаб. ливневой снег 9/8 600 м
[Cb cap Ac trans]
-5.8 -8.0 84 -11 -11 очень
холодно
1026.1 1025.4 -6.1 3 2
00 22.05 З 3
{5}
10 км слаб. ливневой снег 9/6 600 м
[Cb cap Ac trans]
-5.9 -8.5 82 -11 -10 очень
холодно
1027.0 1026.3
03 22.05 З 2
{4}
4000 м слаб. ливневой снег 9/6 600 м
[Cb cap Ac trans]
-5.3 -7.9 82 -10 -8 очень
холодно
1027.2 1026.5
06 22.05 ЮЗ 2
{4}
20 км {ливн. осадки} 9/4 600 м
[Sc Ac trans]
-4.9 -7.5 82 -9 -8 очень
холодно
1027.0 1026.3
09 22.05 СЗ 2
{3}
50 км 6/4 600 м
[Sc Ac trans]
-5.7 -8.1 83 -10 -10 очень
холодно
1027.3 1026.6 -4.5 0.2
12 22.05 СВ 1
{3}
50 км 3/1 300 м
[St Ac trans]
-6.7 -8.2 89 -9 -9 холодно 1027.0 1026.3
15 22.05 СВ 4
{4}
20 км 3/3 200 м
[St]
-7.9 -8.8 93 -15 -15 очень
холодно
1026.1 1025.4
18 22.05 ЮЗ 3
{5}
2000 м дымка 3/0
[Ci fib]
-10.2 -11.5 90 -16 -15 очень
холодно
1025.5 1024.8
21 22.05 С 1
{5}
500 м переохл. туман ?/? -8.3 -9.5 91 -11 -11 очень
холодно
1023.7 1023.0 -10.2 0
00 23.05 СВ 2
{3}
500 м переохл. туман ?/? -6.1 -7.1 93 -11 -11 очень
холодно
1021.3 1020.6
03 23.05 СВ 3
{5}
20 км {туман} ясно -1.9 -5.0 79 -7 0 холодно 1018.4 1017.7
06 23.05 С 4
{7}
50 км {туман} 3/0
[Ci sp]
-0.5 -3.9 78 -6 -4 холодно 1015.9 1015.2
09 23.05 СВ 3
{6}
50 км 3/0
[Ci sp]
+0.8 -4.4 68 -3 -3 по сезону 1014.0 1013.3 +1.8
12 23.05 СВ 2
{8}
50 км 4/3 600 м
[Sc Ci fib]
+2.5 -2.8 68 -0 -0 по сезону 1012.8 1012.1
15 23.05 ЮВ 12-17
{18}
50 км 3/0
[Cc]
+4.1 -0.9 70 -3 -3 по сезону 1011.0 1010.3
18 23.05 ЮВ 11-14
{18}
50 км 6/1 600 м
[Sc Ac und]
+4.9 -0.6 68 -2 -2 по сезону 1010.5 1009.8
21 23.05 В 9-11
{14}
50 км 4/0
[Ac trans]
+5.8 +0.4 68 0 +1 по сезону 1010.3 1009.6 -2.3 0
00 24.05 В 7-11
{13}
50 км 4/0
[Ac trans Ci fib]
+6.4 +0.5 66 +2 +4 по сезону 1009.9 1009.2
03 24.05 ЮВ 12-16
{16}
50 км 8/1 600 м
[Sc Ac trans Ci]
+6.7 +0.8 66 +1 +1 по сезону 1009.2 1008.5
06 24.05 ЮВ 13-19
{21}
50 км 6/3 600 м
[Sc Ac trans]
+7.4 +1.0 64 +2 +2 по сезону 1008.5 1007.8
09 24.05 ЮВ 15-20
{25}
50 км 9/6 600 м
[Sc Ac trans]
+7.0 +1.3 67 +1 +1 по сезону 1008.2 1007.5 +8.5
12 24.05 ЮВ 20-27
{27}
20 км 9/0
[Ac trans Ci sp]
+7.0 +0.6 64 -0 -0 по сезону 1007.7 1007.0
15 24.05 ЮВ 19-23
{29}
50 км 6/4 600 м
[Cu Sc Ac lent]
+5.2 +0.4 71 -3 -3 по сезону 1008.7 1008.0
18 24.05 ЮВ 21-27
{29}
50 км 8/0
[Ac lent Cc]
+4.5 +0.1 73 -4 -4 по сезону 1007.9 1007.2

 

Местоположение метеостанции Певек (Чукотка, Россия): широта 69.70 долгота 170.20 высота над уровнем моря 5 м.

В архиве по умолчанию представлена погода в Певеке за последнюю неделю. Архивные данные за месяц целиком и за предыдущие месяцы, начиная с января 2011 года, Вы можете получить, выбрав интересующий диапазон дат из раскрывающегося списка и нажав кнопку "Ввод!".


*Определитесь, кто Вы:
робот инопланетянин человек

Внимание! Время в таблицах - всемирное. Для получения местного времени необходимо прибавить поправку, которая равна 12 ч.

Смотрите также архив погоды в соседних городах и на ближайших метеорологических станциях:

Погода на 21 км (Чукотка, Россия) (26 км)
Погода в Валькаркае (Чукотка, Россия) (50 км)
Погода на Айон Острове (Чукотка, Россия) (92 км)
Погода в Чауне (Чукотка, Россия) (93 км)
Погода в Комсомольской (Чукотка, Россия) (120 км)
Погода в Раучуе (Чукотка, Россия) (145 км)
Погода в Паляваам-Глубокой (Чукотка, Россия) (165 км)
Погода в Майской (Чукотка, Россия) (181 км)
Погода на Мысе Биллингс (Чукотка, Россия) (212 км)
Погода в Билибино (Чукотка, Россия) (238 км)

Пояснения к столбцам:

Ветер - указаны скорость ветра в м/с - средняя за 10 мин, порывы в срок и между сроками (в фигурных скобках) и направление, откуда дует ветер: С - северный, СВ - северо-восточный, В - восточный, ЮВ - юго-восточный, Ю - южный, ЮЗ - юго-западный, З - западный, СЗ - северо-западный.
Видимость - горизонтальная дальность видимости в метрах или километрах. При видимости от 1 до 10 км при отсутствии осадков обычно наблюдается дымка, при ухудшении видимости до 1 км и менее - туман. В сухую погоду видимость может ухудшаться дымом, пылью или мглою.
Явления - указаны атмосферные явления, наблюдавшиеся в срок или в последний час перед сроком; фигурными скобками обозначены явления, наблюдавшиеся между сроками (за 1-3 часа до срока); квадратными скобками обозначены град или гололедные отложения с указанием их диаметра в мм.
Облачность - указаны через наклонную черту общая и нижняя облачность в баллах и высота нижней границы облаков в метрах; квадратными скобками обозначены формы облаков: Ci - перистые, Cs - перисто-слоистые, Cc - перисто-кучевые, Ac - высококучевые, As - высокослоистые, Sc - слоисто-кучевые, Ns - слоисто-дождевые, Cu - кучевые, Cb - кучево-дождевые. Подробнее классификацию облаков см. в Атласе облаков (PDF).
T - Температура воздуха - температура, измеренная на высоте 2 м над землей.
Td - Температура точки росы - температура, при понижении до которой содержащийся в воздухе водяной пар достигнет насыщения.
f - Относительная влажность воздуха - влажноcть воздуха, измеренная на высоте 2 м над землей.
Te - Эффективная температура - температура, которую ощущает одетый по сезону человек в тени. Характеристика душности погоды. При расчете учитывается влияние влажности воздуха и скорости ветра на теплоощущения человека.
Tes - Эффективная температура на солнце - температура, которую ощущает человек, с поправкой на солнечный нагрев. Характеристика знойности погоды. Зависит от высоты солнца над горизонтом, облачности и скорости ветра. Ночью, в пасмурную погоду, а также при ветре 12 м/с и более поправка равна нулю.
P - Атмосферное давление - приведенное к уровню моря атмосферное давление.
Po - Атмосферное давление - измеренное на уровне метеостанции атмосферное давление.
Tmin - Минимальная температура - минимум температуры воздуха на высоте 2 м над землей.
Tmax - Максимальная температура - максимум температуры воздуха на высоте 2 м над землей.
R - Количество осадков - Количество выпавших осадков за период времени, мм. При наведении курсора мыши на число - период времени, за который выпало указанное количество осадков.
R24 - Количество осадков - Количество выпавших осадков за 24 часа, мм.
S - Снежный покров - Высота снежного покрова, см. При наведении курсора мыши на число - состояние снежного покрова и степень покрытия местности в баллах.